Temperature
24 21 21 21 22 22 23 23 22 23 23 23 22 21 21 21 21 20 20 20 19 19 19 19 19 19 18 18 18 17 17 16 16 16 16 16 15 15 15 15 15 15 15 15
21 21 23 23 23 23 23 22 22 23 23 23 21 21 21 20 20 20 20 20 19 19 19 19 19 18 18 18 17 17 17 16 16 16 16 15 15 15 15 15 15 15 14 14
22 23 24 24 24 24 23 22 23 23 23 22 21 20 20 20 20 20 20 20 19 19 19 18 18 18 18 18 17 17 16 16 16 15 15 15 15 15 15 14 14 14 14 14
22 24 25 24 24 24 23 24 24 23 21 20 21 19 20 19 19 19 19 19 19 19 19 18 18 18 18 17 17 16 16 16 15 15 15 15 15 15 14 14 14 14 14 14
23 24 24 24 25 25 24 24 24 23 21 20 20 19 18 19 19 19 19 19 19 19 18 18 18 17 17 17 17 16 16 15 15 15 15 15 14 14 14 14 14 14 14 14
24 25 25 25 25 25 24 23 22 20 19 19 19 19 18 18 18 18 18 18 18 18 18 18 17 17 17 16 16 16 16 15 15 15 14 14 14 14 14 14 14 14 14 14
23 24 25 25 24 24 22 20 19 19 18 19 19 19 18 19 19 19 18 18 19 18 18 18 17 17 16 16 16 15 15 15 15 15 14 14 14 14 14 14 14 14 14 14
22 22 24 25 24 23 22 20 19 19 19 19 19 18 18 19 19 19 19 19 19 18 18 17 17 17 16 16 16 15 15 15 15 14 14 14 14 14 14 14 13 13 13 13
22 23 25 25 25 24 23 20 20 18 19 18 18 18 19 19 18 18 18 18 18 18 18 17 17 17 17 16 16 15 15 15 15 14 14 14 14 14 14 13 13 13 13 13
23 22 23 25 25 24 23 21 18 18 19 19 19 18 17 18 17 18 17 17 18 18 18 17 17 17 16 16 16 15 15 15 15 14 14 14 14 14 13 13 13 13 13 13
22 21 22 23 23 23 23 22 19 17 17 18 18 18 19 18 17 17 17 18 18 18 18 17 17 17 16 16 16 15 15 15 15 14 14 14 14 14 13 13 13 13 13 13
21 19 20 21 23 24 23 22 19 19 18 17 17 17 19 18 17 17 18 18 18 18 18 17 17 17 16 16 16 15 15 15 15 14 14 14 13 13 13 13 13 13 13 13
21 19 19 20 21 22 22 22 20 18 17 17 17 18 18 17 17 18 18 18 17 17 17 17 17 16 16 16 16 15 15 15 15 14 14 13 13 13 13 13 13 13 13 13
21 18 18 19 20 21 21 22 21 19 17 17 18 18 18 17 17 17 17 18 17 17 17 17 16 16 16 16 15 15 15 15 14 14 14 13 13 13 13 13 13 13 13 12
19 19 20 20 21 22 22 22 22 20 19 18 18 18 17 17 17 17 18 18 17 17 17 17 16 16 16 16 15 15 15 15 14 14 14 14 13 13 13 13 13 13 13 13
18 19 20 21 22 22 21 21 21 20 20 19 19 18 18 18 18 18 18 17 17 17 17 16 16 16 16 16 15 15 15 15 14 14 14 13 13 13 13 13 13 13 13 13
17 18 18 18 20 20 20 20 20 20 20 19 18 18 17 17 17 17 17 17 17 17 17 17 16 16 16 16 16 15 15 15 14 14 14 14 13 13 13 13 13 13 13 13
17 17 16 17 19 19 19 20 21 19 19 19 18 17 17 17 18 18 18 18 18 17 17 17 16 16 16 16 16 15 15 15 14 14 14 14 14 13 13 13 13 13 13 13
17 17 16 16 17 18 19 20 20 19 18 18 17 17 17 18 17 17 18 18 18 18 17 17 17 16 16 16 15 15 15 15 14 14 14 14 14 14 13 13 13 13 13 13
17 17 16 16 18 18 18 20 20 18 16 17 17 16 17 17 14 15 17 18 18 17 17 17 17 16 16 16 15 15 15 15 14 14 14 14 14 14 13 13 13 13 13 13
17 17 17 16 17 17 18 19 20 18 16 17 17 17 17 16 16 17 17 17 17 17 17 17 16 16 16 16 15 15 15 15 14 14 14 14 14 13 13 13 13 13 13 13
17 16 16 15 16 17 18 18 17 16 17 18 18 18 17 17 17 17 17 17 17 16 16 16 16 15 15 15 15 15 15 15 14 14 14 14 14 13 13 13 13 13 13 13
16 16 15 15 15 16 17 17 18 18 17 18 18 18 18 17 17 17 17 17 16 16 16 16 15 15 15 15 15 15 14 14 14 14 14 14 13 13 13 13 13 13 13 13
16 15 14 14 15 16 17 17 18 18 18 18 18 18 17 17 17 17 17 16 16 16 15 15 15 15 14 14 14 14 14 14 14 14 13 13 13 13 13 13 13 13 13 13
15 15 14 14 15 15 17 17 17 17 18 17 17 17 17 17 16 16 16 16 15 15 15 15 15 14 14 14 14 14 14 14 13 13 13 13 13 13 13 13 13 13 13 13
14 14 14 13 14 14 15 17 17 17 17 17 16 16 16 16 16 16 15 15 15 14 14 14 14 14 14 14 14 14 13 13 13 13 13 13 13 13 13 13 13 13 12 13
Wind_Speed
3 2 6 9 9 9 6 4 5 6 3 3 4 5 5 7 8 9 9 10 10 8 5 5 6 6 6 5 6 5 5 3 3 2 2 2 1 1 0 1 2 2 2 2
2 6 12 9 6 4 4 4 5 4 2 3 3 2 3 5 7 9 10 9 9 7 5 5 6 5 6 6 5 5 5 4 4 3 2 2 2 1 1 1 1 2 2 2
8 8 7 5 5 5 6 5 5 3 1 2 3 2 2 2 4 5 6 7 9 9 8 6 6 5 5 6 6 6 5 5 4 3 2 2 1 1 1 1 1 1 2 2
6 8 5 4 7 6 6 6 5 3 2 2 3 2 5 3 3 5 6 6 7 7 7 6 6 6 6 6 5 5 4 4 4 4 4 4 2 2 2 2 2 2 2 2
6 5 5 6 9 6 7 5 3 3 3 0 1 3 5 2 4 5 6 7 7 7 7 7 6 5 5 5 5 5 4 3 3 3 4 3 2 2 1 1 1 2 2 2
7 5 5 6 4 4 2 4 5 5 5 1 3 4 4 4 6 6 6 7 8 7 6 5 4 3 3 4 4 4 3 2 2 2 3 4 4 3 2 1 2 2 1 1
4 4 4 2 1 3 5 6 4 5 3 3 1 3 4 5 3 5 7 7 7 7 6 5 5 4 4 5 4 4 4 2 2 2 2 3 3 3 4 3 3 2 1 1
2 5 4 2 4 4 3 9 7 4 4 3 1 1 4 2 2 5 5 5 6 6 6 6 7 6 6 6 4 4 4 3 3 3 2 2 3 2 2 3 3 3 3 3
4 4 4 3 2 6 4 3 7 6 1 1 1 1 3 2 3 4 5 5 6 6 6 6 7 7 7 6 6 5 4 3 3 3 3 2 2 2 2 2 2 2 2 2
5 2 5 3 2 1 6 6 6 5 3 1 1 3 4 4 3 3 4 6 7 7 6 6 6 7 6 6 5 5 4 4 3 3 3 2 2 2 2 2 2 2 2 2
4 3 4 3 1 2 2 3 5 4 5 5 3 5 6 8 7 7 7 6 7 8 7 6 6 6 5 4 5 4 3 3 2 2 2 2 2 2 2 2 2 2 2 2
3 5 1 5 4 3 3 4 5 5 3 4 4 5 3 8 8 7 6 5 6 7 7 6 6 5 4 4 4 4 4 3 3 3 2 2 2 2 2 2 3 2 2 2
4 6 2 6 6 5 3 1 3 5 5 5 5 4 2 5 5 6 6 5 6 7 7 6 5 5 4 4 4 4 4 4 3 3 3 3 2 2 2 3 2 2 3 2
5 5 6 6 6 3 3 4 1 5 4 3 5 6 5 6 6 6 6 6 6 6 6 6 5 5 4 4 4 4 4 4 4 3 3 3 3 4 4 3 3 3 3 3
5 3 4 4 4 2 2 4 2 2 6 7 7 8 9 10 9 8 7 7 6 5 6 6 6 5 4 4 3 4 4 4 4 3 3 4 4 4 4 4 4 3 3 3
3 4 2 1 2 2 3 3 1 1 2 5 5 3 6 7 6 6 6 7 7 6 7 8 7 5 5 5 4 4 4 4 4 4 4 4 3 3 3 4 4 3 3 3
3 5 3 3 3 4 3 2 2 3 2 6 5 5 6 6 6 7 6 7 7 7 7 8 7 7 6 6 5 5 5 4 4 4 4 4 4 4 4 4 4 4 4 3
7 5 4 2 2 2 5 1 6 7 4 3 4 5 7 7 5 4 4 6 6 7 7 6 6 6 5 5 4 4 4 4 4 4 4 4 4 4 4 4 4 5 4 4
8 7 5 4 2 3 2 1 2 5 3 3 6 4 4 5 5 3 0 4 5 6 6 6 6 6 5 5 5 4 3 4 4 4 4 4 4 4 4 5 5 4 3 4
4 6 6 4 3 5 5 3 1 8 2 1 6 5 4 5 3 3 3 2 3 3 3 3 4 3 5 5 4 4 3 3 4 5 4 4 4 4 5 6 5 4 3 4
2 2 4 4 4 4 3 2 3 4 6 4 5 6 5 4 5 5 2 3 3 3 3 4 4 4 5 4 5 4 4 4 5 4 3 2 3 4 5 4 4 3 3 2
3 2 2 3 3 4 3 1 3 5 4 5 5 5 4 4 4 3 3 3 4 3 3 4 4 2 2 3 4 4 4 5 3 3 2 2 2 3 3 3 3 2 2 2
1 4 4 4 4 4 2 3 4 6 6 4 4 4 5 5 4 3 3 4 3 3 4 3 3 2 1 1 3 4 4 3 2 2 1 2 2 2 2 2 3 2 2 2
3 2 3 2 1 1 2 3 4 5 4 3 4 5 5 4 4 4 3 3 3 2 3 3 3 3 2 2 2 2 2 1 2 2 2 2 2 2 2 1 2 2 3 3
3 2 2 2 1 2 2 2 4 5 5 5 4 4 4 4 4 3 3 3 3 3 2 3 3 3 3 2 1 1 1 1 2 2 2 2 2 2 2 2 2 3 4 5
2 2 2 4 5 4 4 2 6 7 6 5 5 5 4 4 3 3 3 2 3 2 2 2 2 2 2 1 1 1 1 2 2 2 2 3 3 3 2 2 2 3 3 4
Wind_Direction
245 141 231 231 213 213 233 247 256 257 225 148 178 192 187 162 151 157 164 164 162 170 175 164 147 152 149 137 134 137 144 155 145 136 141 147 137 118 127 197 175 166 155 150
336 247 236 230 225 227 233 252 269 273 232 158 176 210 179 167 174 175 173 167 160 156 154 157 143 153 155 152 148 154 159 162 164 170 174 167 160 190 208 244 204 176 166 179
209 237 234 226 245 245 251 217 228 211 299 72 100 344 253 192 168 180 178 162 157 160 169 168 152 162 158 163 167 167 169 166 164 163 134 111 88 59 5 296 280 240 183 171
231 242 228 228 246 228 253 230 197 174 127 246 162 212 264 211 184 192 179 165 163 165 164 163 161 170 174 178 174 168 173 169 165 153 145 151 155 187 222 226 239 258 221 202
240 233 216 228 243 221 223 220 193 178 151 67 4 136 269 189 186 204 189 168 167 164 157 160 171 180 183 172 163 165 165 165 164 156 158 156 163 199 213 208 240 262 263 229
243 248 209 219 238 205 155 53 35 54 79 19 258 155 247 231 203 193 186 177 175 165 154 156 158 158 160 151 147 148 145 160 162 141 147 159 171 187 183 210 236 257 256 251
279 278 264 205 83 344 76 85 38 12 20 251 229 126 247 253 203 178 178 181 179 166 158 153 152 160 155 146 149 146 140 146 158 147 149 170 188 193 199 207 210 219 232 240
211 269 255 215 179 192 166 136 151 185 217 256 43 182 261 273 132 139 158 167 164 166 164 168 169 168 166 157 158 158 161 163 171 169 172 170 184 194 199 201 197 204 212 223
183 251 271 251 198 155 153 167 167 145 164 127 221 234 308 4 87 121 145 157 169 181 182 181 174 173 170 166 174 174 166 165 177 185 184 188 193 191 194 208 199 202 215 223
150 229 280 285 44 34 155 147 98 120 148 219 213 215 222 217 194 182 170 170 178 181 183 180 175 178 181 177 175 172 169 177 190 183 187 189 199 198 197 204 208 212 229 236
116 146 308 353 187 206 71 92 112 121 146 156 207 254 218 193 191 190 188 179 181 179 173 168 171 175 175 169 166 168 177 180 189 190 193 197 212 212 201 206 215 212 220 224
125 120 243 259 255 194 151 155 138 150 203 164 167 253 236 175 179 177 181 175 175 173 167 164 166 165 167 175 176 175 184 190 205 199 185 191 207 210 213 224 225 210 211 222
117 105 53 347 350 7 34 65 119 134 129 151 162 241 202 162 163 170 170 167 164 159 152 152 154 164 176 188 186 181 188 192 193 180 179 190 200 206 218 222 221 211 213 228
100 110 153 192 227 258 311 319 358 117 141 181 196 190 190 179 172 175 171 162 155 160 151 149 154 165 175 179 178 187 196 189 175 172 184 199 211 212 214 221 222 218 212 214
90 140 184 215 242 246 277 293 298 187 188 186 198 181 196 190 182 180 172 159 152 158 160 160 170 177 177 171 174 184 187 183 182 184 200 217 219 219 221 220 220 223 222 223
100 154 152 274 280 310 294 289 258 198 162 155 147 191 200 176 157 159 166 166 167 173 180 178 178 175 177 178 180 186 190 189 180 190 213 219 220 223 227 225 223 222 232 238
154 146 137 245 288 2 309 246 147 111 119 148 176 205 159 142 153 170 171 168 174 179 181 183 184 186 190 191 185 187 196 187 185 200 215 216 215 222 231 231 225 225 228 228
156 145 146 171 47 251 248 200 120 100 62 89 117 138 147 158 158 150 159 167 172 175 181 182 186 191 195 193 187 183 181 179 189 202 219 218 215 222 234 229 227 230 226 215
160 149 139 138 164 258 290 306 129 123 53 56 106 121 131 127 87 29 286 156 173 180 182 185 186 183 183 185 184 171 173 178 191 207 220 222 216 221 231 232 238 233 221 225
104 119 129 138 160 223 241 276 124 104 82 352 112 126 129 108 118 245 245 140 133 148 163 160 165 166 178 192 171 159 176 181 204 216 224 221 214 216 225 232 234 229 219 226
58 84 149 171 190 237 245 257 87 132 211 202 146 143 140 153 185 210 183 129 134 131 136 131 143 175 198 189 163 168 185 206 216 212 206 204 214 224 226 224 225 222 220 219
173 150 177 155 174 236 274 123 154 190 170 158 148 148 148 164 160 146 139 140 126 117 124 135 142 177 214 179 163 181 210 221 210 193 192 214 229 237 229 216 229 220 206 210
140 181 174 176 201 224 218 162 162 143 140 150 145 154 160 158 148 139 138 136 125 132 146 150 153 160 191 174 166 197 227 213 177 171 210 243 247 255 245 216 226 224 214 215
327 49 94 78 103 114 102 104 113 125 137 155 141 135 137 143 141 133 137 138 130 139 152 144 140 147 198 224 186 204 228 181 142 170 222 244 239 262 285 246 221 214 222 225
269 359 66 93 179 66 31 94 111 106 102 99 97 98 107 121 124 135 138 151 151 155 171 156 157 176 211 229 225 224 200 151 170 189 211 232 232 236 260 264 240 226 228 220
274 191 168 215 218 174 200 149 110 107 108 109 98 84 83 104 122 123 140 152 150 158 152 153 164 181 211 202 242 278 231 175 175 208 231 235 234 240 238 238 286 285 252 249
Height
1483 1490 1494 1489 1487 1489 1490 1494 1495 1490 1483 1486 1489 1491 1490 1490 1491 1493 1494 1496 1498 1500 1502 1503 1503 1505 1506 1506 1506 1506 1507 1507 1507 1507 1507 1507 1507 1507 1507 1508 1508 1507 1507 1507
1488 1490 1481 1478 1479 1483 1487 1493 1493 1487 1481 1484 1490 1492 1490 1490 1490 1491 1492 1494 1497 1498 1500 1501 1502 1503 1504 1504 1504 1504 1504 1505 1505 1505 1505 1505 1505 1505 1506 1506 1506 1505 1505 1505
1487 1481 1473 1476 1480 1483 1485 1490 1489 1488 1484 1484 1491 1498 1493 1490 1490 1492 1492 1493 1495 1496 1497 1498 1500 1501 1502 1502 1502 1502 1502 1502 1502 1503 1503 1503 1503 1503 1503 1503 1503 1503 1503 1503
1479 1472 1472 1475 1477 1478 1486 1477 1478 1481 1492 1500 1495 1512 1498 1492 1491 1491 1491 1492 1493 1494 1496 1497 1498 1499 1499 1500 1500 1500 1500 1499 1500 1500 1500 1500 1500 1500 1500 1500 1500 1500 1500 1500
1476 1469 1471 1474 1471 1471 1475 1470 1474 1479 1489 1499 1498 1509 1504 1494 1494 1491 1489 1490 1491 1492 1494 1496 1497 1498 1498 1497 1498 1498 1498 1498 1498 1497 1497 1498 1498 1498 1498 1498 1498 1498 1498 1498
1468 1464 1464 1465 1464 1465 1467 1473 1479 1486 1496 1510 1502 1508 1508 1496 1490 1489 1488 1489 1490 1491 1493 1494 1496 1497 1496 1495 1496 1496 1495 1495 1495 1495 1495 1496 1496 1496 1496 1495 1496 1496 1496 1496
1473 1466 1461 1461 1466 1467 1471 1489 1507 1511 1517 1513 1498 1503 1503 1488 1484 1485 1486 1487 1488 1490 1491 1492 1494 1495 1494 1493 1493 1493 1493 1493 1493 1493 1493 1493 1494 1494 1493 1493 1493 1493 1494 1494
1482 1481 1464 1460 1464 1470 1473 1484 1507 1517 1518 1511 1502 1505 1497 1484 1482 1482 1484 1486 1487 1488 1489 1491 1491 1493 1492 1491 1492 1492 1492 1491 1491 1491 1491 1491 1492 1492 1492 1492 1492 1492 1492 1492
1477 1477 1459 1456 1456 1461 1472 1480 1482 1498 1503 1511 1509 1501 1493 1485 1484 1484 1485 1485 1486 1487 1488 1489 1490 1491 1490 1490 1490 1490 1490 1490 1490 1490 1490 1490 1490 1490 1490 1490 1491 1491 1491 1491
1464 1474 1463 1456 1456 1458 1462 1469 1486 1497 1509 1515 1508 1504 1501 1490 1487 1484 1484 1484 1485 1486 1487 1487 1488 1488 1489 1489 1489 1490 1490 1489 1489 1489 1489 1489 1489 1489 1489 1489 1489 1489 1489 1489
1460 1473 1470 1463 1464 1466 1466 1471 1481 1493 1498 1511 1516 1507 1482 1482 1481 1482 1482 1483 1484 1485 1485 1486 1487 1488 1488 1488 1488 1488 1488 1488 1488 1488 1488 1487 1487 1487 1487 1487 1487 1487 1487 1487
1459 1472 1479 1469 1457 1454 1459 1465 1476 1492 1496 1498 1506 1502 1474 1475 1477 1479 1480 1481 1482 1483 1484 1485 1486 1487 1487 1487 1487 1486 1487 1487 1486 1486 1486 1486 1486 1486 1485 1485 1485 1485 1485 1485
1458 1473 1487 1482 1474 1463 1462 1462 1467 1478 1489 1497 1503 1497 1474 1474 1476 1477 1479 1480 1481 1482 1482 1483 1484 1485 1485 1485 1485 1485 1485 1485 1485 1485 1485 1485 1484 1484 1484 1483 1483 1483 1483 1483
1454 1470 1482 1488 1482 1471 1468 1464 1464 1475 1490 1492 1488 1484 1478 1475 1475 1475 1477 1478 1480 1481 1481 1482 1483 1483 1484 1484 1483 1484 1484 1484 1484 1484 1484 1483 1483 1483 1482 1482 1482 1481 1481 1481
1456 1470 1468 1468 1464 1462 1464 1464 1462 1467 1473 1481 1478 1477 1474 1471 1471 1472 1474 1476 1478 1479 1480 1480 1481 1481 1482 1482 1482 1482 1482 1483 1483 1482 1482 1482 1482 1481 1481 1481 1480 1480 1480 1480
1458 1467 1466 1467 1461 1461 1463 1461 1460 1463 1464 1469 1471 1473 1466 1466 1468 1470 1472 1474 1476 1477 1478 1478 1479 1479 1480 1480 1480 1480 1481 1481 1481 1481 1481 1481 1481 1480 1480 1479 1478 1478 1478 1479
1461 1466 1473 1476 1465 1465 1472 1463 1461 1463 1462 1464 1472 1469 1465 1467 1468 1469 1470 1471 1473 1474 1476 1476 1477 1477 1478 1478 1478 1478 1479 1479 1479 1479 1479 1479 1479 1479 1478 1478 1477 1477 1477 1477
1458 1465 1474 1476 1473 1483 1471 1455 1455 1460 1462 1460 1462 1463 1464 1465 1466 1468 1469 1470 1471 1472 1474 1474 1475 1476 1476 1477 1477 1477 1477 1477 1477 1477 1477 1477 1477 1477 1477 1476 1476 1475 1475 1475
1447 1459 1471 1480 1481 1477 1465 1457 1457 1462 1468 1463 1463 1464 1465 1465 1467 1469 1469 1469 1469 1470 1471 1472 1473 1474 1475 1475 1476 1476 1475 1475 1475 1475 1475 1475 1475 1475 1475 1474 1474 1474 1473 1472
1447 1453 1466 1475 1479 1482 1469 1456 1453 1459 1473 1465 1463 1464 1465 1466 1472 1472 1468 1468 1468 1469 1470 1470 1471 1473 1474 1474 1474 1474 1473 1473 1473 1473 1473 1473 1473 1473 1472 1472 1472 1472 1471 1470
1457 1460 1465 1471 1475 1469 1458 1454 1453 1470 1472 1464 1462 1463 1464 1465 1467 1467 1466 1466 1467 1467 1468 1469 1470 1471 1471 1472 1472 1472 1471 1471 1471 1471 1471 1471 1471 1470 1470 1470 1470 1469 1469 1468
1460 1464 1467 1470 1475 1473 1456 1454 1458 1461 1459 1460 1461 1462 1463 1463 1464 1465 1465 1465 1465 1466 1467 1468 1468 1469 1469 1469 1469 1469 1469 1469 1469 1469 1469 1468 1468 1468 1468 1467 1467 1467 1466 1466
1457 1458 1460 1463 1466 1458 1454 1454 1455 1455 1457 1458 1459 1460 1461 1462 1462 1463 1463 1464 1465 1465 1465 1466 1466 1467 1467 1467 1467 1466 1466 1467 1467 1467 1467 1466 1466 1465 1465 1465 1464 1464 1464 1463
1455 1452 1456 1460 1459 1456 1455 1455 1455 1456 1456 1458 1458 1459 1460 1460 1461 1461 1462 1462 1463 1464 1464 1464 1465 1465 1465 1465 1465 1465 1465 1465 1464 1464 1464 1464 1464 1463 1463 1463 1462 1462 1461 1461
1456 1454 1457 1460 1458 1457 1457 1455 1455 1455 1456 1457 1457 1458 1459 1459 1460 1461 1461 1461 1461 1462 1463 1463 1463 1463 1463 1463 1463 1462 1462 1462 1462 1462 1462 1462 1461 1461 1461 1460 1460 1459 1459 1459
1454 1455 1458 1459 1455 1456 1457 1455 1455 1455 1456 1456 1457 1458 1458 1459 1459 1459 1460 1460 1460 1461 1461 1461 1461 1461 1461 1461 1460 1460 1460 1459 1459 1459 1459 1459 1459 1459 1458 1458 1458 1458 1457 1456